Time_in_sec,gx,gy,gz
1323446759.30147004,-0.01611553,0.00802313,-0.99983795
1323446759.35253811,-0.01584826,0.00817616,-0.99984098
1323446759.40461111,-0.01582650,0.00797291,-0.99984296
1323446759.45259023,-0.01601280,0.00806236,-0.99983928
1323446759.50450611,-0.01569556,0.00807234,-0.99984423
1323446759.55360293,-0.01490141,0.00769109,-0.99985939
1323446759.60450649,-0.01475023,0.00749487,-0.99986312
1323446759.65259528,-0.01469763,0.00752303,-0.99986368
1323446759.70461869,-0.01444388,0.00762235,-0.99986663
1323446759.75437212,-0.01440204,0.00759576,-0.99986743
1323446759.80451250,-0.01401332,0.00725659,-0.99987548
1323446759.85364842,-0.01404138,0.00734925,-0.99987441
1323446759.90229535,-0.01409578,0.00714310,-0.99987513
1323446759.95365047,-0.01411350,0.00720543,-0.99987444
1323446760.00255513,-0.01411935,0.00714452,-0.99987479
1323446760.05252743,-0.01450499,0.00724116,-0.99986858
1323446760.10485864,-0.01452838,0.00742404,-0.99986690
1323446760.15353179,-0.01436024,0.00752273,-0.99986859
1323446760.20483637,-0.01454581,0.00762204,-0.99986515
1323446760.25332546,-0.01454594,0.00751797,-0.99986594
1323446760.30216146,-0.01501771,0.00755427,-0.99985869
1323446760.35318589,-0.01509371,0.00760568,-0.99985716
1323446760.40480089,-0.01511871,0.00758459,-0.99985694
1323446760.45213747,-0.01497234,0.00769159,-0.99985832
1323446760.50553894,-0.01477015,0.00753878,-0.99986250
1323446760.55253220,-0.01460688,0.00718857,-0.99986747
1323446760.60551023,-0.01446205,0.00712180,-0.99987006
1323446760.65249252,-0.01462934,0.00698202,-0.99986861
1323446760.70204115,-0.01471692,0.00701499,-0.99986709
1323446760.75252676,-0.01457547,0.00687299,-0.99987015
1323446760.80151534,-0.01489994,0.00681958,-0.99986573
1323446760.84449840,-0.01503847,0.00667006,-0.99986467
1323446760.90165234,-0.01501059,0.00682534,-0.99986404
1323446760.95351696,-0.01516117,0.00691365,-0.99986116
1323446761.00852561,-0.01523394,0.00676800,-0.99986105
1323446761.05257463,-0.01536391,0.00673087,-0.99985931
1323446761.10188603,-0.01523112,0.00685513,-0.99986050
1323446761.15361476,-0.01531243,0.00685653,-0.99985925
1323446761.20490718,-0.01533064,0.00680743,-0.99985931
1323446761.25606441,-0.01546485,0.00682796,-0.99985710
1323446761.30461073,-0.01509471,0.00695516,-0.99986188
1323446761.35256052,-0.01504039,0.00716562,-0.99986121
1323446761.40447807,-0.01510262,0.00737865,-0.99985872
1323446761.45257115,-0.01505509,0.00737231,-0.99985949
1323446761.50457644,-0.01519658,0.00739778,-0.99985716
1323446761.55358791,-0.01446444,0.00733577,-0.99986847
1323446761.60453200,-0.01443212,0.00755409,-0.99986732
1323446761.65210867,-0.01433921,0.00771453,-0.99986743
1323446761.70552635,-0.01465719,0.00778086,-0.99986230
1323446761.75251555,-0.01458170,0.00758512,-0.99986491
1323446761.80162740,-0.01480009,0.00821860,-0.99985670
1323446761.85355234,-0.01480984,0.00795078,-0.99985872
1323446761.90162182,-0.01484766,0.00792982,-0.99985832
1323446761.95265937,-0.01498239,0.00770412,-0.99985808
1323446762.00165486,-0.01479005,0.00773337,-0.99986071
1323446762.05317020,-0.01519176,0.00728834,-0.99985804
1323446762.10164022,-0.01533025,0.00706888,-0.99985750
1323446762.15264297,-0.01528726,0.00726145,-0.99985678
1323446762.20466304,-0.01526687,0.00717653,-0.99985770
1323446762.25361753,-0.01538454,0.00702884,-0.99985695
1323446762.30149698,-0.01646799,0.00711121,-0.99983911
1323446762.35252547,-0.01650888,0.00690091,-0.99983990
1323446762.40161228,-0.01640390,0.00689173,-0.99984170
1323446762.45423317,-0.01634108,0.00672578,-0.99984385
1323446762.50160575,-0.01617610,0.00688782,-0.99984543
1323446762.55250359,-0.01672706,0.00647349,-0.99983914
1323446762.60554171,-0.01689317,0.00625922,-0.99983771
1323446762.65344334,-0.01696044,0.00636943,-0.99983587
1323446762.70449209,-0.01687768,0.00649091,-0.99983649
1323446762.75364971,-0.01678855,0.00642926,-0.99983839
1323446762.80165434,-0.01703507,0.00653598,-0.99983353
1323446762.85266972,-0.01692062,0.00657739,-0.99983520
1323446762.90165162,-0.01699496,0.00668259,-0.99983324
1323446762.95352626,-0.01699635,0.00640521,-0.99983504
1323446763.00548768,-0.01682189,0.00636476,-0.99983824
1323446763.05365396,-0.01654706,0.00664353,-0.99984102
1323446763.10220933,-0.01657207,0.00647709,-0.99984169
1323446763.15263295,-0.01649728,0.00637749,-0.99984357
1323446763.20164847,-0.01663524,0.00639008,-0.99984121
1323446763.25527072,-0.01671395,0.00652633,-0.99983901
1323446763.30165100,-0.01754177,0.00670539,-0.99982365
1323446763.35254049,-0.01746782,0.00669091,-0.99982504
1323446763.40451503,-0.01717364,0.00708585,-0.99982741
1323446763.45366597,-0.01707427,0.00728980,-0.99982765
1323446763.50205445,-0.01697309,0.00711098,-0.99983066
1323446763.55365801,-0.01756789,0.00685150,-0.99982220
1323446763.60164285,-0.01766574,0.00709993,-0.99981874
1323446763.65252137,-0.01776413,0.00708970,-0.99981707
1323446763.70164442,-0.01784329,0.00713916,-0.99981531
1323446763.75254393,-0.01775635,0.00716859,-0.99981664
1323446763.80204535,-0.01795915,0.00705015,-0.99981386
1323446763.85252285,-0.01812566,0.00721840,-0.99980966
1323446763.90191340,-0.01823855,0.00734043,-0.99980672
1323446763.95365477,-0.01813161,0.00748925,-0.99980756
1323446764.00579262,-0.01808693,0.00750403,-0.99980826
1323446764.05365276,-0.01845450,0.00754333,-0.99980125
1323446764.10165358,-0.01853496,0.00750788,-0.99980002
1323446764.15253782,-0.01865027,0.00753998,-0.99979764
1323446764.20553327,-0.01874266,0.00748332,-0.99979634
1323446764.25263500,-0.01908750,0.00757255,-0.99978914
1323446764.30179191,-0.01902632,0.00747530,-0.99979104
1323446764.35366249,-0.01894697,0.00747780,-0.99979253
1323446764.40453768,-0.01874345,0.00739539,-0.99979698
1323446764.45616221,-0.01898125,0.00755476,-0.99979130
1323446764.50577760,-0.01895582,0.00749125,-0.99979226
1323446764.55351186,-0.01891006,0.00736340,-0.99979407
1323446764.60451198,-0.01905375,0.00725468,-0.99979214
1323446764.65332413,-0.01897321,0.00717696,-0.99979423
1323446764.70176315,-0.01905142,0.00713710,-0.99979303
1323446764.75263429,-0.01913188,0.00717916,-0.99979119
1323446764.80462766,-0.01963432,0.00726773,-0.99978081
1323446764.85504246,-0.01949460,0.00740226,-0.99978256
1323446764.90451694,-0.01976232,0.00735506,-0.99977765
1323446764.95651698,-0.01973955,0.00736961,-0.99977799
1323446765.00453043,-0.01970817,0.00746133,-0.99977793
1323446765.05352497,-0.01947823,0.00734284,-0.99978332
1323446765.10149574,-0.01929384,0.00755517,-0.99978531
1323446765.15264320,-0.01947539,0.00738100,-0.99978309
1323446765.20256352,-0.01951101,0.00724408,-0.99978340
1323446765.25350904,-0.01964415,0.00720862,-0.99978105
1323446765.30461550,-0.01950528,0.00713732,-0.99978428
1323446765.35253763,-0.01963176,0.00719925,-0.99978136
1323446765.40464544,-0.01961536,0.00705033,-0.99978274
1323446765.45250344,-0.01961676,0.00692771,-0.99978357
1323446765.50167584,-0.01958136,0.00710607,-0.99978301
1323446765.55359936,-0.01933278,0.00704624,-0.99978827
1323446765.60159898,-0.01918855,0.00735927,-0.99978880
1323446765.65253210,-0.01919090,0.00692445,-0.99979186
1323446765.70465350,-0.01917681,0.00697672,-0.99979177
1323446765.75348973,-0.01897251,0.00729089,-0.99979342
1323446765.80150795,-0.02023387,0.00778143,-0.99976499
1323446765.85248899,-0.02000434,0.00806366,-0.99976737
1323446765.90222120,-0.01988502,0.00805615,-0.99976982
1323446765.95350003,-0.01996355,0.00823830,-0.99976677
1323446766.00148439,-0.01970712,0.00831692,-0.99977120
1323446766.05654263,-0.01999317,0.00864803,-0.99976271
1323446766.10149717,-0.01981035,0.00868874,-0.99976600
1323446766.15347981,-0.01969871,0.00873615,-0.99976779
1323446766.20150948,-0.01983000,0.00872576,-0.99976529
1323446766.25348592,-0.01965113,0.00869855,-0.99976906
1323446766.30168939,-0.01950897,0.00870097,-0.99977182
1323446766.35252953,-0.01962741,0.00875600,-0.99976902
1323446766.40150285,-0.01965230,0.00889620,-0.99976730
1323446766.45204186,-0.01968476,0.00872308,-0.99976818
1323446766.50556588,-0.01951769,0.00868286,-0.99977181
1323446766.55252767,-0.01906270,0.00883296,-0.99977927
1323446766.60449123,-0.01909565,0.00883646,-0.99977861
1323446766.65365362,-0.01895216,0.00869542,-0.99978258
1323446766.70195937,-0.01914743,0.00872706,-0.99977858
1323446766.75250626,-0.01930335,0.00863216,-0.99977641
1323446766.80164623,-0.01888010,0.00863643,-0.99978445
1323446766.85537100,-0.01892273,0.00879811,-0.99978224
1323446766.90163827,-0.01908591,0.00893283,-0.99977794
1323446766.95254993,-0.01893005,0.00900842,-0.99978023
1323446767.00450301,-0.01890429,0.00911662,-0.99977973
1323446767.05272031,-0.01899915,0.00928387,-0.99977640
1323446767.10180521,-0.01893423,0.00945267,-0.99977605
1323446767.15360308,-0.01879908,0.00933718,-0.99977968
1323446767.20511937,-0.01890315,0.00937859,-0.99977733
1323446767.25367880,-0.01905679,0.00927403,-0.99977539
1323446767.30586457,-0.01872477,0.00909341,-0.99978332
1323446767.35265040,-0.01869618,0.00912112,-0.99978361
1323446767.40456963,-0.01864161,0.00911984,-0.99978464
1323446767.45364022,-0.01876219,0.00895462,-0.99978387
1323446767.50166464,-0.01858877,0.00885871,-0.99978797
1323446767.55250740,-0.01881927,0.00872257,-0.99978485
1323446767.59356070,-0.01888355,0.00870112,-0.99978383
1323446767.65465879,-0.01904246,0.00897608,-0.99977838
1323446767.70554328,-0.01913149,0.00902384,-0.99977625
1323446767.75249457,-0.01911196,0.00901595,-0.99977670
1323446767.80509210,-0.01909471,0.00902921,-0.99977691
1323446767.85263443,-0.01936816,0.00914409,-0.99977060
1323446767.89369226,-0.01947560,0.00918689,-0.99976812
1323446767.95253062,-0.01944870,0.00897199,-0.99977060
1323446767.99264073,-0.01943460,0.00903715,-0.99977029
1323446768.05354357,-0.01934089,0.00913160,-0.99977125
1323446768.09358549,-0.01924974,0.00904730,-0.99977377
1323446768.14455533,-0.01916119,0.00908852,-0.99977510
1323446768.20463538,-0.01924467,0.00893698,-0.99977486
1323446768.25357652,-0.01920105,0.00886806,-0.99977631
1323446768.30153656,-0.01952373,0.00839737,-0.99977413
1323446768.35351801,-0.01930813,0.00833655,-0.99977882
1323446768.40599084,-0.01922692,0.00832519,-0.99978048
1323446768.45256329,-0.01929860,0.00826737,-0.99977958
1323446768.50555944,-0.01921662,0.00830497,-0.99978085
1323446768.54554772,-0.01956133,0.00819873,-0.99977504
1323446768.60453129,-0.01956874,0.00815969,-0.99977522
1323446768.65251780,-0.01966849,0.00842733,-0.99977104
1323446768.70163298,-0.01967324,0.00830122,-0.99977200
1323446768.75252151,-0.01949657,0.00832947,-0.99977523
1323446768.80156755,-0.01966759,0.00851980,-0.99977027
1323446768.85665154,-0.01968300,0.00835330,-0.99977137
1323446768.90455389,-0.01983683,0.00868669,-0.99976549
1323446768.95252681,-0.01994113,0.00872316,-0.99976310
1323446769.00456214,-0.02007379,0.00866189,-0.99976098
1323446769.05277920,-0.02039050,0.00864042,-0.99975476
1323446769.10231900,-0.02030892,0.00865184,-0.99975632
1323446769.15255594,-0.02019264,0.00869083,-0.99975833
1323446769.20558739,-0.02004049,0.00905236,-0.99975819
1323446769.25651431,-0.02009167,0.00860145,-0.99976114
1323446769.30454850,-0.02053482,0.00864832,-0.99975173
1323446769.34556031,-0.02039296,0.00856266,-0.99975537
1323446769.40452480,-0.02031010,0.00864612,-0.99975634
1323446769.45264220,-0.02005477,0.00859879,-0.99976191
1323446769.50210953,-0.02016282,0.00863395,-0.99975943
1323446769.55365491,-0.02108008,0.00939191,-0.99973368
1323446769.60160327,-0.02101282,0.00932454,-0.99973572
1323446769.65250826,-0.02076682,0.00932564,-0.99974085
1323446769.70158076,-0.02090381,0.00949374,-0.99973642
1323446769.75251436,-0.02092090,0.00961280,-0.99973492
1323446769.80450606,-0.02138196,0.00941124,-0.99972708
1323446769.85263753,-0.02139341,0.00933049,-0.99972759
1323446769.90449071,-0.02139068,0.00961535,-0.99972495
1323446769.95263362,-0.02135718,0.00956622,-0.99972614
1323446770.00451446,-0.02131342,0.00958889,-0.99972686
1323446770.05543828,-0.02128288,0.00994605,-0.99972402
1323446770.10465193,-0.02118221,0.00972037,-0.99972838
1323446770.14564180,-0.02121287,0.00972167,-0.99972771
1323446770.20449114,-0.02127964,0.00998170,-0.99972373
1323446770.24465752,-0.02150566,0.01013983,-0.99971731
1323446770.30185270,-0.02199462,0.01024687,-0.99970558
1323446770.35354137,-0.02217179,0.01027628,-0.99970136
1323446770.39364505,-0.02213815,0.01026836,-0.99970219
1323446770.45222402,-0.02215243,0.01025027,-0.99970206
1323446770.50450969,-0.02236844,0.01025480,-0.99969720
1323446770.54454231,-0.02343457,0.01060265,-0.99966915
1323446770.60452366,-0.02356242,0.01065644,-0.99966557
1323446770.64452767,-0.02360453,0.01080216,-0.99966301
1323446770.69373465,-0.02344063,0.01068791,-0.99966810
1323446770.74571776,-0.02345439,0.01070134,-0.99966763
1323446770.79250622,-0.02413374,0.01102632,-0.99964793
1323446770.85639358,-0.02337073,0.01064140,-0.99967023
1323446770.89314699,-0.02352658,0.01100933,-0.99966259
1323446770.94450641,-0.02369572,0.01118174,-0.99965668
1323446771.00539494,-0.02357590,0.01130252,-0.99965816
1323446771.05311704,-0.02318608,0.01105263,-0.99967007
1323446771.09356570,-0.02338762,0.01093539,-0.99966666
1323446771.15251470,-0.02344641,0.01088737,-0.99966581
1323446771.20452833,-0.02352002,0.01065961,-0.99966654
1323446771.25189495,-0.02353540,0.01092284,-0.99966333
1323446771.30556226,-0.02279277,0.01030163,-0.99968713
1323446771.34552193,-0.02271514,0.01052766,-0.99968655
1323446771.40450120,-0.02267669,0.01052838,-0.99968741
1323446771.44500732,-0.02271945,0.01034547,-0.99968835
1323446771.50169802,-0.02277200,0.01033551,-0.99968726
1323446771.54641652,-0.02314605,0.00990429,-0.99968303
1323446771.59356785,-0.02311694,0.00998405,-0.99968291
1323446771.65350771,-0.02339085,0.01007178,-0.99967566
1323446771.69365072,-0.02334843,0.01035471,-0.99967376
1323446771.74451947,-0.02335013,0.01036306,-0.99967364
1323446771.80452728,-0.02175789,0.00959394,-0.99971724
1323446771.84565139,-0.02195498,0.00953909,-0.99971345
1323446771.89378095,-0.02208371,0.00932803,-0.99971261
1323446771.94449258,-0.02205854,0.00926763,-0.99971373
1323446771.99365568,-0.02222809,0.00918353,-0.99971075
1323446772.04459429,-0.02193381,0.00943712,-0.99971488
1323446772.09365344,-0.02210478,0.00928991,-0.99971250
1323446772.14555049,-0.02225036,0.00920704,-0.99971003
1323446772.20450091,-0.02234770,0.00918975,-0.99970802
1323446772.24463177,-0.02254316,0.00921271,-0.99970342
1323446772.29356217,-0.02237086,0.00931806,-0.99970632
1323446772.34212089,-0.02248495,0.00940531,-0.99970294
1323446772.39264560,-0.02245379,0.00914471,-0.99970606
1323446772.44454217,-0.02241037,0.00926089,-0.99970596
1323446772.49262881,-0.02252346,0.00927862,-0.99970326
1323446772.54454279,-0.02230125,0.00903915,-0.99971043
1323446772.59250498,-0.02206262,0.00915872,-0.99971464
1323446772.64519262,-0.02229802,0.00932843,-0.99970785
1323446772.69364762,-0.02214640,0.00922421,-0.99971218
1323446772.74554276,-0.02281171,0.00937657,-0.99969581
1323446772.79265308,-0.02160117,0.00889971,-0.99972706
1323446772.84469008,-0.02153856,0.00908198,-0.99972677
1323446772.89363503,-0.02154618,0.00904776,-0.99972691
1323446772.94451642,-0.02131208,0.00927339,-0.99972986
1323446772.99660230,-0.02183533,0.00958878,-0.99971560
1323446773.04451609,-0.02026625,0.00959264,-0.99974860
1323446773.09252381,-0.02034666,0.00954595,-0.99974741
1323446773.14508486,-0.02022836,0.00960854,-0.99974921
1323446773.19364285,-0.02046680,0.00981401,-0.99974236
1323446773.24273491,-0.02081699,0.00967338,-0.99973650
1323446773.29255939,-0.01891696,0.00957118,-0.99977525
1323446773.34511614,-0.01893550,0.00961965,-0.99977443
1323446773.39255571,-0.01910812,0.00954281,-0.99977188
1323446773.44451618,-0.01913765,0.00942043,-0.99977248
1323446773.49354911,-0.01945137,0.00936510,-0.99976694
1323446773.54174709,-0.01758450,0.00949730,-0.99980027
1323446773.59368539,-0.01770447,0.00955707,-0.99979759
1323446773.64170289,-0.01774590,0.00968892,-0.99979558
1323446773.69357300,-0.01781959,0.00975024,-0.99979368
1323446773.74164152,-0.01826443,0.00987599,-0.99978441
1323446773.79252243,-0.01603618,0.01040639,-0.99981726
1323446773.84465289,-0.01594521,0.01039460,-0.99981883
1323446773.89359283,-0.01591947,0.01048794,-0.99981827
1323446773.95266318,-0.01591621,0.01037153,-0.99981954
1323446773.99364901,-0.01568418,0.01041739,-0.99982273
1323446774.04587245,-0.01301932,0.01054760,-0.99985961
1323446774.09262419,-0.01298387,0.01047630,-0.99986082
1323446774.14453292,-0.01296572,0.01064111,-0.99985932
1323446774.19654679,-0.01312178,0.01072144,-0.99985642
1323446774.24452519,-0.01340219,0.01107695,-0.99984883
1323446774.29394102,-0.01148472,0.01039818,-0.99987998
1323446774.34448743,-0.01168924,0.01058020,-0.99987570
1323446774.39358020,-0.01181016,0.01058525,-0.99987423
1323446774.44449496,-0.01186379,0.01066335,-0.99987276
1323446774.49363351,-0.01180404,0.01050804,-0.99987512
1323446774.54160643,-0.01065276,0.01000191,-0.99989323
1323446774.59347105,-0.01085479,0.01007876,-0.99989029
1323446774.64549851,-0.01102429,0.00998039,-0.99988942
1323446774.69434357,-0.01073870,0.01002008,-0.99989213
1323446774.74451327,-0.01122594,0.01008962,-0.99988608
1323446774.79366636,-0.00968228,0.00978896,-0.99990521
1323446774.84229493,-0.00971410,0.00978797,-0.99990491
1323446774.89325809,-0.00989822,0.00984432,-0.99990255
1323446774.94503832,-0.00995489,0.00992207,-0.99990122
1323446774.99354649,-0.01004358,0.01009751,-0.99989858
1323446775.04491115,-0.00904516,0.01031871,-0.99990585
1323446775.09377670,-0.00893980,0.01039307,-0.99990603
1323446775.15267730,-0.00911421,0.01054133,-0.99990290
1323446775.19322538,-0.00911879,0.01068330,-0.99990135
1323446775.24216390,-0.00942865,0.01058441,-0.99989953
1323446775.29254055,-0.00883651,0.01048817,-0.99990595
1323446775.34203553,-0.00870080,0.01048021,-0.99990723
1323446775.40451694,-0.00877916,0.01034771,-0.99990792
1323446775.44473600,-0.00883698,0.01024658,-0.99990845
1323446775.49404168,-0.00913737,0.01026546,-0.99990556
1323446775.54450774,-0.00861197,0.01049247,-0.99990787
1323446775.59356618,-0.00845605,0.01030839,-0.99991111
1323446775.64485407,-0.00856269,0.01041105,-0.99990914
1323446775.69365287,-0.00836525,0.01028725,-0.99991209
1323446775.74590564,-0.00838795,0.01046383,-0.99991007
1323446775.80552173,-0.00760860,0.00970613,-0.99992395
1323446775.84549499,-0.00760556,0.00957700,-0.99992522
1323446775.89390039,-0.00781208,0.00959631,-0.99992344
1323446775.94451904,-0.00786045,0.00953628,-0.99992363
1323446775.99251223,-0.00781377,0.00960486,-0.99992334
1323446776.04634666,-0.00748422,0.00928916,-0.99992885
1323446776.09389377,-0.00779585,0.00933729,-0.99992602
1323446776.14449549,-0.00776534,0.00951030,-0.99992462
1323446776.19349194,-0.00776987,0.00934555,-0.99992614
1323446776.24178195,-0.00789456,0.00958640,-0.99992289
1323446776.29250646,-0.00662770,0.00914931,-0.99993618
1323446776.34574866,-0.00646904,0.00919999,-0.99993675
1323446776.39250112,-0.00633886,0.00927663,-0.99993688
1323446776.44450212,-0.00653286,0.00929680,-0.99993544
1323446776.49324584,-0.00670609,0.00948724,-0.99993251
1323446776.54460573,-0.00737864,0.00915533,-0.99993087
1323446776.59656930,-0.00744752,0.00906848,-0.99993115
1323446776.64564943,-0.00734694,0.00909256,-0.99993167
1323446776.69362140,-0.00753131,0.00923254,-0.99992902
1323446776.74550557,-0.00758030,0.00938082,-0.99992727
1323446776.79265356,-0.00701291,0.00984163,-0.99992698
1323446776.84160876,-0.00696166,0.00996486,-0.99992612
1323446776.89365435,-0.00708114,0.00962965,-0.99992856
1323446776.94453788,-0.00715234,0.00943729,-0.99992989
1323446776.99251056,-0.00741804,0.00906763,-0.99993137
1323446777.04453063,-0.00536005,0.00827972,-0.99995136
1323446777.09249783,-0.00559732,0.00844907,-0.99994864
1323446777.15252900,-0.00570477,0.00833090,-0.99994902
1323446777.19353580,-0.00582538,0.00845715,-0.99994727
